Home   Weather   Rio de Janeiro   Past weeks

Flag for Brazil Past Weather in Rio de Janeiro, Rio de Janeiro, Brazil — Yesterday and Last 2 Weeks

Now
88 °F

Scattered clouds.


Feels Like: 94 °F
Forecast: 71 / 89 °F
Wind: 14 mph from South

Location: Rio De Janeiro Airport

Current Time: Feb 21, 2017 at 1:45:44 pm

Latest Report: Feb 21, 2017 at 1:00 pm


Visibility: N/A

Pressure: 30.04 "Hg

Humidity: 59%

Dew Point: 72 °F

Location of Rio de JaneiroLocation

Past Weather in Rio de Janeiro — Graph

°F

Rio de Janeiro Temperature Yesterday

Maximum temperature yesterday: 90 °F (at 11:00 am)
Minimum temperature yesterday: 75 °F (at 12:00 am)
Average temperature yesterday: 82 °F

High & Low Weather Summary for the Past Weeks

 TemperatureHumidityPressure
High97 °F (Feb 6, 2:00 pm)94% (Feb 8, 3:00 am)30.12 "Hg (Feb 8, 3:00 am)
Low75 °F (Feb 9, 6:00 am)39% (Feb 13, 12:00 pm)29.71 "Hg (Feb 6, 3:00 pm)
Average84 °F69%29.93 "Hg
* Reported Feb 6 1:00 pm — Feb 21 12:00 pm, Rio de Janeiro, Weather by CustomWeather, © 2017

Note: Actual official high and low records may vary slightly from our data, if they occured in-between our weather recording intervals... More about our weather records

Advertising

Rio de Janeiro Weather History for the Previous 24 Hours

Scroll right to see more
 ConditionsComfort  
Time TempWeatherWind HumidityBarometerVisibility
12:00 pm
Tue, Feb 21
88 °FPassing clouds.13 mph59%30.07 "HgN/A
11:00 am88 °FPassing clouds.10 mph59%30.07 "HgN/A
10:00 am86 °FPassing clouds.7 mph62%30.09 "HgN/A
9:00 am86 °FPassing clouds.2 mph62%30.09 "HgN/A
8:00 am84 °FPassing clouds.3 mph66%30.07 "HgN/A
7:00 am81 °FPassing clouds.6 mph74%30.07 "HgN/A
6:00 am77 °FSunny.5 mph83%30.01 "Hg10 mi
5:00 am77 °FClear.6 mph83%30.01 "Hg10 mi
4:00 am77 °FClear.6 mph83%29.98 "Hg10 mi
3:00 am77 °FClear.7 mph83%29.98 "Hg10 mi
2:00 am79 °FClear.2 mph74%30.01 "Hg10 mi
1:00 am79 °FClear.7 mph74%30.01 "Hg10 mi
12:00 am79 °FClear.6 mph74%30.01 "Hg10 mi
11:00 pm
Mon, Feb 20
79 °FClear.1 mph74%30.04 "Hg10 mi
10:00 pm81 °FClear.7 mph74%30.04 "Hg10 mi
9:00 pm79 °FClear.8 mph74%30.04 "Hg10 mi
8:00 pm79 °FPassing clouds.13 mph74%30.01 "HgN/A
7:00 pm81 °FPassing clouds.12 mph70%29.98 "Hg6 mi
6:00 pm82 °FPassing clouds.15 mph66%29.98 "Hg6 mi
4:00 pm84 °FPassing clouds.18 mph62%29.98 "HgN/A
3:00 pm88 °FPassing clouds.15 mph59%29.98 "HgN/A
2:00 pm88 °FPassing clouds.15 mph55%29.98 "HgN/A
1:00 pm88 °FPassing clouds.14 mph55%30.01 "HgN/A
Weather by CustomWeather, © 2017

See weather overviewHow to use our weather pages